TimeCDT,TemperatureF,Dew PointF,Humidity,Sea Level PressureIn,VisibilityMPH,Wind Direction,Wind SpeedMPH,Gust SpeedMPH,PrecipitationIn,Events,Conditions,WindDirDegrees,DateUTC
12:15 AM,61.5,48.2,62,29.82,10.0,SSW,9.2,-,N/A,,Clear,210,2013-10-01 05:15:00
12:35 AM,61.5,48.7,63,29.82,10.0,SSW,10.4,-,N/A,,Clear,200,2013-10-01 05:35:00
12:55 AM,60.8,49.5,66,29.82,10.0,SSW,9.2,-,N/A,,Clear,200,2013-10-01 05:55:00
1:15 AM,60.8,49.6,67,29.82,10.0,SSW,9.2,-,N/A,,Clear,200,2013-10-01 06:15:00
1:35 AM,60.1,50.2,70,29.82,10.0,SSW,9.2,-,N/A,,Clear,200,2013-10-01 06:35:00
1:55 AM,60.6,50.9,70,29.82,10.0,SSW,11.5,-,N/A,,Clear,200,2013-10-01 06:55:00
2:15 AM,60.8,51.3,71,29.81,10.0,SSW,11.5,-,N/A,,Clear,210,2013-10-01 07:15:00
2:35 AM,60.3,52.0,74,29.81,10.0,SSW,9.2,-,N/A,,Clear,210,2013-10-01 07:35:00
2:55 AM,60.3,52.7,76,29.81,10.0,SSW,9.2,-,N/A,,Clear,210,2013-10-01 07:55:00
3:15 AM,60.3,53.1,77,29.81,10.0,SSW,10.4,16.1,N/A,,Clear,210,2013-10-01 08:15:00
3:35 AM,59.9,53.6,80,29.81,10.0,SSW,8.1,-,N/A,,Clear,200,2013-10-01 08:35:00
3:55 AM,60.4,54.0,79,29.80,10.0,SSW,10.4,-,N/A,,Clear,200,2013-10-01 08:55:00
4:15 AM,60.8,54.5,80,29.80,10.0,SSW,10.4,-,N/A,,Clear,210,2013-10-01 09:15:00
4:35 AM,60.4,54.5,81,29.80,10.0,SSW,10.4,-,N/A,,Clear,200,2013-10-01 09:35:00
4:55 AM,60.6,54.9,81,29.80,10.0,SSW,10.4,-,N/A,,Clear,200,2013-10-01 09:55:00
5:15 AM,60.8,55.4,82,29.80,10.0,SSW,11.5,-,N/A,,Clear,200,2013-10-01 10:15:00
5:35 AM,60.8,55.4,82,29.81,10.0,SSW,12.7,-,N/A,,Clear,210,2013-10-01 10:35:00
5:55 AM,61.0,55.6,82,29.81,10.0,SSW,15.0,18.4,N/A,,Clear,210,2013-10-01 10:55:00
6:15 AM,61.0,55.8,83,29.82,10.0,SW,13.8,19.6,N/A,,Clear,220,2013-10-01 11:15:00
6:35 AM,60.3,55.8,85,29.82,10.0,SSW,10.4,16.1,N/A,,Clear,210,2013-10-01 11:35:00
6:55 AM,60.1,55.6,85,29.80,10.0,SSW,11.5,17.3,N/A,,Clear,200,2013-10-01 11:55:00
7:15 AM,60.8,55.4,82,29.81,10.0,SSW,15.0,-,N/A,,Clear,210,2013-10-01 12:15:00
7:35 AM,61.9,55.0,78,29.80,10.0,SSW,15.0,20.7,N/A,,Clear,200,2013-10-01 12:35:00
7:55 AM,63.0,54.9,75,29.81,10.0,SSW,13.8,25.3,N/A,,Clear,210,2013-10-01 12:55:00
8:15 AM,64.2,55.0,72,29.80,10.0,SSW,16.1,20.7,N/A,,Clear,210,2013-10-01 13:15:00
8:35 AM,65.3,54.9,69,29.81,10.0,SSW,16.1,24.2,N/A,,Clear,210,2013-10-01 13:35:00
8:55 AM,66.0,54.9,67,29.81,10.0,SW,19.6,27.6,N/A,,Clear,220,2013-10-01 13:55:00
9:15 AM,66.4,55.2,67,29.81,10.0,SW,20.7,25.3,N/A,,Clear,220,2013-10-01 14:15:00
9:35 AM,67.5,55.6,66,29.81,10.0,SSW,13.8,24.2,N/A,,Clear,210,2013-10-01 14:35:00
9:55 AM,68.4,55.6,64,29.83,10.0,SW,13.8,20.7,N/A,,Clear,230,2013-10-01 14:55:00
10:15 AM,68.2,55.6,64,29.84,10.0,SW,16.1,24.2,N/A,,Clear,220,2013-10-01 15:15:00
10:35 AM,70.0,56.1,61,29.82,10.0,WSW,11.5,-,N/A,,Clear,240,2013-10-01 15:35:00
10:55 AM,71.2,55.8,58,29.83,10.0,WSW,15.0,19.6,N/A,,Clear,240,2013-10-01 15:55:00
11:15 AM,71.2,55.6,58,29.84,10.0,SW,12.7,21.9,N/A,,Clear,230,2013-10-01 16:15:00
11:55 AM,72.7,55.9,56,29.84,10.0,WSW,16.1,23.0,N/A,,Clear,240,2013-10-01 16:55:00
12:15 PM,73.6,56.3,55,29.84,10.0,WSW,16.1,-,N/A,,Clear,240,2013-10-01 17:15:00
12:35 PM,73.9,55.0,52,29.85,10.0,WSW,15.0,20.7,N/A,,Clear,250,2013-10-01 17:35:00
12:55 PM,74.8,55.6,51,29.84,10.0,SW,12.7,-,N/A,,Clear,230,2013-10-01 17:55:00
1:15 PM,75.6,55.0,49,29.84,10.0,SW,16.1,-,N/A,,Clear,230,2013-10-01 18:15:00
1:35 PM,75.9,55.0,48,29.84,10.0,West,15.0,19.6,N/A,,Clear,260,2013-10-01 18:35:00
1:55 PM,76.3,55.0,48,29.84,10.0,West,12.7,17.3,N/A,,Clear,260,2013-10-01 18:55:00
2:15 PM,76.6,55.6,48,29.85,10.0,WSW,11.5,-,N/A,,Clear,240,2013-10-01 19:15:00
2:55 PM,77.5,56.3,48,29.85,10.0,SW,11.5,17.3,N/A,,Clear,230,2013-10-01 19:55:00
3:15 PM,77.7,56.1,47,29.85,10.0,WSW,12.7,-,N/A,,Clear,240,2013-10-01 20:15:00
3:35 PM,77.9,55.6,46,29.85,10.0,WSW,11.5,17.3,N/A,,Clear,240,2013-10-01 20:35:00
3:55 PM,78.3,55.2,45,29.85,10.0,WSW,9.2,-,N/A,,Clear,250,2013-10-01 20:55:00
4:15 PM,78.1,53.1,42,29.86,10.0,WSW,10.4,-,N/A,,Clear,240,2013-10-01 21:15:00
4:35 PM,78.1,52.7,41,29.87,10.0,WSW,9.2,-,N/A,,Clear,250,2013-10-01 21:35:00
4:55 PM,77.5,53.1,42,29.87,10.0,West,9.2,-,N/A,,Clear,260,2013-10-01 21:55:00
5:15 PM,77.0,52.0,42,29.88,10.0,West,9.2,-,N/A,,Clear,260,2013-10-01 22:15:00
5:35 PM,75.7,52.0,43,29.88,10.0,West,8.1,-,N/A,,Clear,260,2013-10-01 22:35:00
5:55 PM,74.7,52.7,46,29.89,10.0,WSW,8.1,-,N/A,,Clear,250,2013-10-01 22:55:00
6:15 PM,72.9,53.6,51,29.89,10.0,West,5.8,-,N/A,,Clear,260,2013-10-01 23:15:00
6:35 PM,70.7,53.6,55,29.89,10.0,West,5.8,-,N/A,,Clear,260,2013-10-01 23:35:00
6:55 PM,69.8,53.6,56,29.90,10.0,West,4.6,-,N/A,,Clear,260,2013-10-01 23:55:00
7:15 PM,68.9,53.6,58,29.91,10.0,West,4.6,-,N/A,,Clear,260,2013-10-02 00:15:00
7:35 PM,68.2,53.6,60,29.91,10.0,West,4.6,-,N/A,,Clear,260,2013-10-02 00:35:00
7:55 PM,67.3,53.6,61,29.92,10.0,West,3.5,-,N/A,,Clear,270,2013-10-02 00:55:00
8:15 PM,66.7,53.6,63,29.93,10.0,WNW,4.6,-,N/A,,Clear,290,2013-10-02 01:15:00
8:35 PM,66.2,53.4,63,29.93,10.0,West,4.6,-,N/A,,Clear,270,2013-10-02 01:35:00
8:55 PM,65.1,53.1,65,29.94,10.0,West,3.5,-,N/A,,Clear,270,2013-10-02 01:55:00
9:15 PM,64.4,52.9,66,29.94,10.0,Calm,Calm,-,N/A,,Clear,0,2013-10-02 02:15:00
9:35 PM,63.7,52.7,67,29.95,10.0,Calm,Calm,-,N/A,,Clear,0,2013-10-02 02:35:00
9:55 PM,60.8,52.2,73,29.95,10.0,Calm,Calm,-,N/A,,Clear,0,2013-10-02 02:55:00
10:15 PM,58.1,52.0,80,29.96,10.0,Calm,Calm,-,N/A,,Clear,0,2013-10-02 03:15:00
10:35 PM,56.1,50.9,83,29.96,10.0,Calm,Calm,-,N/A,,Clear,0,2013-10-02 03:35:00
10:55 PM,54.7,51.1,88,29.97,10.0,Calm,Calm,-,N/A,,Clear,0,2013-10-02 03:55:00
11:15 PM,55.2,51.4,87,29.97,10.0,Calm,Calm,-,N/A,,Clear,0,2013-10-02 04:15:00
11:35 PM,54.3,51.4,90,29.98,10.0,Calm,Calm,-,N/A,,Clear,0,2013-10-02 04:35:00
11:55 PM,53.2,49.8,88,29.98,10.0,Calm,Calm,-,N/A,,Clear,0,2013-10-02 04:55:00